This is the latest recevied weather packets stored in our database for station/object VR2MW-X. If no packets are shown the sender has not sent any weather packets the latest 1 day(s).
| Time | Temp. | Humidity | Pressure | Rain* | Wind** | Luminosity | Snow |
|---|---|---|---|---|---|---|---|
| 1778057531 | 25° C | 78% | 1011.1 hPa | - | - | - | - |
| 1778056310 | 26.11° C | 78% | 1011.1 hPa | - | - | - | - |
| 1778055089 | 25° C | 80% | 1011.2 hPa | - | - | - | - |
| 1778053867 | 25° C | 80% | 1011.6 hPa | - | - | - | - |
| 1778053256 | 25° C | 80% | 1011.8 hPa | - | - | - | - |
| 1778052645 | 25° C | 81% | 1011.8 hPa | - | - | - | - |
| 1778051420 | 23.89° C | 82% | 1012.1 hPa | - | - | - | - |
| 1778050194 | 23.89° C | 82% | 1012.1 hPa | - | - | - | - |
| 1778049584 | 23.89° C | 81% | 1012.1 hPa | - | - | - | - |
| 1778048363 | 25° C | 81% | 1012.3 hPa | - | - | - | - |
| 1778047140 | 25° C | 79% | 1012.3 hPa | - | - | - | - |
| 1778045919 | 25° C | 79% | 1012.5 hPa | - | - | - | - |
| 1778045308 | 25° C | 80% | 1012.6 hPa | - | - | - | - |
| 1778044087 | 25° C | 78% | 1013 hPa | - | - | - | - |
| 1778043477 | 25° C | 80% | 1013.1 hPa | - | - | - | - |
| 1778042866 | 25° C | 80% | 1013.1 hPa | - | - | - | - |
| 1778042256 | 23.89° C | 81% | 1013.1 hPa | - | - | - | - |
| 1778041644 | 23.89° C | 79% | 1013.2 hPa | - | - | - | - |
| 1778041033 | 25° C | 79% | 1013.3 hPa | - | - | - | - |
| 1778040423 | 26.11° C | 77% | 1013.3 hPa | - | - | - | - |
| 1778039202 | 26.11° C | 75% | 1013.5 hPa | - | - | - | - |
| 1778038592 | 26.11° C | 78% | 1013.3 hPa | - | - | - | - |
| 1778037981 | 25° C | 78% | 1013.3 hPa | - | - | - | - |
| 1778037370 | 25° C | 77% | 1013.3 hPa | - | - | - | - |
| 1778036150 | 25° C | 75% | 1013.5 hPa | - | - | - | - |
* Rain since midnight (hover to see other rain measurements)
** Current wind speed in m/s (hover to see current wind gust speed)